Regional Weather Roundup
Issued by NWS

Home | Current Version | Previous Version | Graphics & Text | Print | Product List | Glossary On
Versions: 1 2 3 4 5 6 7 8 9 10 11 12 13 14 15 16 17 18 19 20 21 22 23 24 25 26 27 28 29 30 31 32 33 34 35 36 37 38 39 40 41 42 43 44 45 46 47 48 49 50
000
ASUS45 KSLC 271710
RWRUT

UTAH REGIONAL WEATHER ROUNDUP
NATIONAL WEATHER SERVICE SALT LAKE CITY UT
1000 AM MST FRI FEB 27 2015

UTZ001>011-023>025-271800-

NORTHERN UTAH

CITY           SKY/WX    TMP DP  RH WIND       PRES   REMARKS
BRIGHAM CITY   CLOUDY    35  26  70 S5        29.83F WCI  31
HILL AFB       PTSUNNY   33  21  61 E9        29.81F WCI  25
LOGAN          CLOUDY    31  23  72 CALM      29.81F
OGDEN          CLOUDY    35  22  58 SE6       29.81F WCI  30
PROVO AIRPORT  PTSUNNY   36  27  69 CALM      29.84F
SALT LAKE CITY PTSUNNY   35  29  78 SE10      29.82F WCI  27
VERNAL         SUNNY     28  11  48 S5        29.88F WCI  23
WENDOVER       CLOUDY    37  28  70 SE3       29.82F
HEBER CITY     CLOUDY    28  21  74 CALM      29.82F
WEST JORDAN    CLOUDY    36  32  87 S10       29.83F WCI  28

$$

UTZ012>022-026-027-271800-

SOUTHERN/CENTRAL UTAH

CITY           SKY/WX    TMP DP  RH WIND       PRES   REMARKS
BLANDING       CLOUDY    28  26  91 CALM      29.94S
BRYCE CANYON   PTSUNNY   23  18  81 CALM      29.80F
CEDAR CITY     MOSUNNY   31  23  72 CALM      29.80S
DELTA          MOSUNNY   37  27  67 S5        29.83S WCI  33
HANKSVILLE     CLOUDY    32  32 100 CALM      29.88S
MILFORD        SUNNY     37  25  61 S6        29.81F WCI  32
MOAB/CYNLANDS  PTSUNNY   36  29  75 SW3       29.83F
PRICE          CLOUDY    34  23  64 SW6       29.80F WCI  29
ST GEORGE      PTSUNNY   48  28  46 E3        29.83F
KANAB          CLOUDY    39  23  52 CALM      29.86

$$

REGIONAL REPORTS     COLORADO/ARIZONA

CITY           SKY/WX    TMP DP  RH WIND       PRES   REMARKS
CRAIG, CO      PTSUNNY   18  10  71 CALM      29.88F
GRAND JUNCTION CLOUDY    31  30  96 SW9       29.84S WCI  23
RIFLE          CLOUDY    28  18  66 CALM      29.84F
MONTROSE       PTSUNNY   28  22  78 SE3       29.84F
CORTEZ         CLOUDY    32  25  75 CALM      29.87S
PAGE, AZ       CLOUDY    41  32  70 CALM      29.85R
GRAND CANYON   CLOUDY    35  24  64 CALM      29.84R
KINGMAN        CLOUDY    49  27  42 N7        29.79S
FLAGSTAFF      CLOUDY    36  21  54 SW12      29.83S WCI  28

$$

REGIONAL REPORTS    NEVADA/IDAHO/WYOMING

CITY           SKY/WX    TMP DP  RH WIND       PRES   REMARKS
LAS VEGAS, NV  MOSUNNY   56  22  26 CALM      29.76S
ELY            SUNNY     34  20  56 S6        29.79F WCI  29
ELKO           CLOUDY    33  28  81 CALM      29.77F
POCATELLO, ID  FLURRIES  30  24  78 N3        29.81S
BURLEY         CLOUDY    34  29  82 NE5       29.78S WCI  30
EVANSTON, WY   CLOUDY    17  13  84 VRB5      29.78F WCI  10
ROCK SPRINGS   MOSUNNY   12   7  80 S3        29.83F

$$


USA.gov is the U.S. government's official web portal to all federal, state and local government web resources and services.